This is the latest recevied weather packets stored in our database for station/object N4TLC. If no packets are shown the sender has not sent any weather packets the latest 10 day(s).
| Time | Temp. | Humidity | Pressure | Rain* | Wind** | Luminosity | Snow |
|---|---|---|---|---|---|---|---|
| 1778009633 | 27.22° C | 31% | 1016.3 hPa | 0 mm | - | 863 W/m² | - |
| 1778009330 | 26.67° C | 33% | 1016.2 hPa | 0 mm | - | 915 W/m² | - |
| 1778009028 | 26.67° C | 33% | 1016.4 hPa | 0 mm | - | 922 W/m² | - |
| 1778008725 | 26.11° C | 34% | 1016.4 hPa | 0 mm | - | 1009 W/m² | - |
| 1778008424 | 25.56° C | 35% | 1016.4 hPa | 0 mm | - | 810 W/m² | - |
| 1778008120 | 25° C | 35% | 1016.7 hPa | 0 mm | - | 436 W/m² | - |
| 1778007816 | 25.56° C | 33% | 1016.7 hPa | 0 mm | - | 473 W/m² | - |
| 1778007512 | 26.11° C | 32% | 1017 hPa | 0 mm | - | 631 W/m² | - |
| 1778007208 | 26.11° C | 34% | 1017.1 hPa | 0 mm | - | 963 W/m² | - |
| 1778006904 | 25.56° C | 34% | 1017.2 hPa | 0 mm | - | 992 W/m² | - |
| 1778006602 | 25.56° C | 35% | 1017.1 hPa | 0 mm | - | 972 W/m² | - |
| 1778006299 | 25.56° C | 34% | 1017.3 hPa | 0 mm | - | 933 W/m² | - |
| 1778005996 | 25.56° C | 35% | 1017.2 hPa | 0 mm | - | 1028 W/m² | - |
| 1778005692 | 25.56° C | 34% | 1017.5 hPa | 0 mm | - | 998 W/m² | - |
| 1778005389 | 25.56° C | 34% | 1017.4 hPa | 0 mm | - | 676 W/m² | - |
| 1778005086 | 25° C | 34% | 1017.4 hPa | 0 mm | - | 757 W/m² | - |
| 1778004783 | 25° C | 34% | 1017.3 hPa | 0 mm | - | 766 W/m² | - |
| 1778004479 | 25.56° C | 34% | 1017.5 hPa | 0 mm | - | 818 W/m² | - |
| 1778004176 | 25.56° C | 34% | 1017.5 hPa | 0 mm | - | 813 W/m² | - |
| 1778003872 | 25.56° C | 35% | 1017.5 hPa | 0 mm | - | 896 W/m² | - |
| 1778003569 | 25° C | 36% | 1017.5 hPa | 0 mm | - | 913 W/m² | - |
| 1778003266 | 25° C | 36% | 1017.8 hPa | 0 mm | - | 781 W/m² | - |
| 1778002963 | 25° C | 35% | 1017.6 hPa | 0 mm | - | 661 W/m² | - |
| 1778002659 | 25° C | 34% | 1017.7 hPa | 0 mm | - | 729 W/m² | - |
| 1778002356 | 25° C | 35% | 1017.7 hPa | 0 mm | - | 765 W/m² | - |
* Rain latest hour (hover to see other rain measurements)
** Current wind speed in m/s (hover to see current wind gust speed)